www.pogodaiklimat.ru

Погода и климат >> Архив погоды >> Индонезия >> Аэропорт Ахмад Яни


ПОГОДА в Аэропорту Ахмад Яни

  • Прогноз погоды в Аэропорту Ахмад Яни
  • Монитор погоды в Аэропорту Ахмад Яни

АРХИВ ПОГОДЫ в Аэропорту Ахмад Яни

Время (UTC), дата Ветер
(напр.,м/с)
 
Видим.   Явления Облачность Т
(С)
Тd
(С)
f
(%)
Тe
(С)
Тes
(С)
Комфортность P
(гПа)
Po
(гПа)
Тmin
(С)
Tmax
(С)
R
(мм)
R24
(мм)
S
(см)
21 16.05 ЮВ 1 6000 м 6/3 420 м
[Sc Ac trans Ci sp]
+25.8 +23.3 86 +35 +35 очень
душно
1010.8 1010.4
00 17.05 ЮВ 2 5000 м мгла 8/3 420 м
[Sc Ac trans Ci sp]
+25.7 +22.2 81 +33 +34 очень
душно
1011.6 1011.2 +24.4
03 17.05 СЗ 4 7000 м 8/1 420 м
[Cu hum Ac trans Ci sp]
+29.9 +22.1 63 +39 +44 очень
душно
1011.7 1011.3
06 17.05 ЮВ 5 8000 м 8/3 420 м
[Cu hum Ac trans Ci sp]
+32.3 +18.5 44 +37 +41 очень
душно
1009.9 1009.5
09 17.05 ЮВ 4 8000 м 8/3 420 м
[Cu hum Ac trans Ci sp]
+32.8 +18.6 43 +38 +38 очень
душно
1008.2 1007.9
12 17.05 З 1 6000 м 8/1 420 м
[Cu hum Ac trans Ci sp]
+28.8 +21.6 65 +37 +37 очень
душно
1009.9 1009.5 +33.2
15 17.05 Ю 2 6000 м 8/3 420 м
[Sc Ac trans Ci sp]
+26.6 +21.6 74 +34 +34 очень
душно
1011.7 1011.4
18 17.05 Ю 2 6000 м 8/3 420 м
[Sc Ac trans Ci sp]
+26.6 +21.6 74 +34 +34 очень
душно
1011.7 1011.4
21 17.05 Ю 2 6000 м 6/3 420 м
[Sc Ac trans Ci sp]
+24.3 +21.0 82 +31 +31 очень
душно
1010.5 1010.1
00 18.05 ЮВ 2 6000 м 6/3 420 м
[Sc Ac trans Ci sp]
+24.4 +20.7 80 +30 +31 очень
душно
1011.8 1011.4 +23.0
03 18.05 В 4 7000 м 5/1 420 м
[Sc Ac trans Ci sp]
+30.6 +18.7 49 +36 +42 очень
душно
1012.5 1012.1
06 18.05 В 2 7000 м 6/1 420 м
[Cu hum Ac trans Ci sp]
+32.2 +20.5 50 +39 +50 очень
душно
1010.0 1009.7
09 18.05 С 4 7000 м 8/3 420 м
[Cu hum Ac trans Ci sp]
+30.6 +21.7 59 +39 +40 очень
душно
1009.2 1008.9
12 18.05 З 2 6000 м 9/4 420 м
[Cu hum Ac trans Ci sp]
+28.6 +22.8 71 +38 +38 очень
душно
1010.4 1010.0 +32.4
15 18.05 ЮВ 2 6000 м 6/3 420 м
[Cu hum Ac trans Ci sp]
+27.0 +22.8 78 +36 +36 очень
душно
1012.2 1011.8
18 18.05 Ю 2 6000 м 5/3 420 м
[Cu hum Ac trans Ci sp]
+26.6 +22.4 78 +35 +35 очень
душно
1011.8 1011.5
21 18.05 ЮВ 2 6000 м 5/3 960 м
[Cu hum Ac trans Ci sp]
+25.0 +21.9 83 +32 +32 очень
душно
1010.9 1010.5
00 19.05 штиль 0 5000 м мгла 5/3 420 м
[Sc Ac trans Ci sp]
+25.1 +22.0 83 +32 +34 очень
душно
1011.9 1011.5 +24.0
03 19.05 ЮВ 5 8000 м 5/3 420 м
[Sc Ac trans Ci fib]
+30.8 +20.7 55 +38 +42 очень
душно
1012.2 1011.9
06 19.05 ЮВ 4 8000 м 5/3 420 м
[Cu med, cong Ac trans Ci fib]
+33.0 +22.7 55 +43 +49 опасность
перегрева
1009.8 1009.4
09 19.05 В 5 8000 м 5/3 420 м
[Cu med, cong Ac trans Ci fib]
+32.2 +22.6 57 +42 +43 опасность
перегрева
1008.5 1008.2
12 19.05 Ю 1 7000 м 5/3 420 м
[Cu med, cong Ac trans Ci fib]
+30.2 +24.4 71 +42 +42 опасность
перегрева
1010.3 1009.9 +33.2
15 19.05 ЮВ 1 7000 м 5/3 420 м
[Cu med, cong Ac trans Ci fib]
+28.6 +23.3 73 +39 +39 очень
душно
1012.8 1012.4
18 19.05 Ю 1 6000 м 5/3 420 м
[Cu hum Ac trans Ci fib]
+27.0 +23.0 79 +36 +36 очень
душно
1012.1 1011.8
21 19.05 Ю 2 6000 м 5/3 420 м
[Cu hum Ac trans Ci fib]
+26.1 +22.6 81 +34 +34 очень
душно
1010.8 1010.5
00 20.05 ЮВ 2 5000 м мгла 5/3 420 м
[Sc Ac trans Ci fib]
+25.4 +22.9 86 +34 +35 очень
душно
1012.2 1011.8 +24.0
03 20.05 В 6 7000 м 4/3 420 м
[Cu med, cong Ac trans Ci fib]
+31.4 +23.2 62 +42 +45 опасность
перегрева
1012.2 1011.8
06 20.05 В 5 8000 м 4/3 420 м
[Cu med, cong Ac trans Ci fib]
+32.8 +24.3 61 +45 +51 опасность
перегрева
1009.9 1009.5
09 20.05 В 4 8000 м 4/3 420 м
[Cu med, cong Ac trans Ci fib]
+33.0 +22.7 55 +43 +44 опасность
перегрева
1008.5 1008.2
12 20.05 ЮВ 2 7000 м 4/3 420 м
[Sc Ac trans Ci fib]
+30.6 +22.7 63 +40 +40 очень
душно
1010.0 1009.6 +33.8
15 20.05 ЮВ 3 6000 м 4/3 420 м
[Sc Ac trans Ci fib]
+28.6 +23.3 73 +39 +39 очень
душно
1012.1 1011.8
18 20.05 Ю 2 6000 м 4/3 420 м
[Sc Ac trans Ci fib]
+27.4 +23.0 77 +37 +37 очень
душно
1011.3 1010.9
21 20.05 ЮВ 2 6000 м 4/3 420 м
[Sc Ac trans Ci fib]
+26.2 +23.5 85 +36 +36 очень
душно
1010.8 1010.4
00 21.05 В 2 5000 м мгла 3/1 420 м
[Sc Ac trans Ci fib]
+25.8 +23.5 87 +35 +36 очень
душно
1012.1 1011.7 +25.0
03 21.05 ЮВ 5 7000 м 3/1 420 м
[Sc Ac trans Ci fib]
+32.0 +21.5 54 +40 +47 очень
душно
1012.0 1011.6
06 21.05 В 5 8000 м 4/3 420 м
[Cu hum Ac trans Ci fib]
+33.8 +22.9 53 +44 +49 опасность
перегрева
1009.7 1009.3
09 21.05 В 4 8000 м 4/3 420 м
[Cu hum Ac trans Ci fib]
+33.4 +22.5 53 +43 +44 опасность
перегрева
1008.2 1007.9
12 21.05 З 1 7000 м 5/3 420 м
[Sc diur, vesp Ac trans Ci sp]
+30.6 +25.0 72 +44 +44 опасность
перегрева
1009.8 1009.4 +34.2
15 21.05 Ю 1 6000 м 6/3 420 м
[Sc Ac trans Ci fib]
+28.8 +23.9 75 +40 +40 очень
душно
1012.0 1011.7
18 21.05 ЮВ 3 6000 м 6/3 420 м
[Sc Ac trans Ci sp]
+27.2 +23.0 78 +36 +36 очень
душно
1011.8 1011.5
21 21.05 ЮВ 4 6000 м 6/3 420 м
[Sc Ac trans Ci sp]
+25.4 +23.5 89 +34 +34 очень
душно
1011.3 1010.9
00 22.05 штиль 0 6000 м 4/3 420 м
[Sc Ac trans Ci fib]
+26.2 +23.7 86 +36 +37 очень
душно
1011.8 1011.5 +25.0
03 22.05 ЮВ 5 7000 м 3/1 420 м
[Cu hum Ac trans Ci fib]
+32.2 +21.1 52 +40 +46 очень
душно
1011.9 1011.5
06 22.05 С 6 8000 м 4/1 420 м
[Cu hum Ac trans Ci fib]
+32.9 +22.0 53 +42 +47 опасность
перегрева
1009.1 1008.8
09 22.05 В 3 8000 м 5/3 420 м
[Cu hum Ac trans Ci fib]
+33.3 +19.4 44 +39 +40 очень
душно
1008.4 1008.0
12 22.05 ЮЗ 2 7000 м 4/1 450 м
[Sc Ac trans Ci fib]
+30.0 +24.6 73 +43 +43 опасность
перегрева
1010.2 1009.9 +34.4
15 22.05 Ю 3 6000 м 4/1 450 м
[Sc Ac trans Ci sp]
+28.2 +24.0 78 +39 +39 очень
душно
1012.3 1011.6
18 22.05 штиль 0 6000 м 5/1 450 м
[Sc Ac trans Ci sp]
+27.2 +23.9 82 +37 +37 очень
душно
1012.4 1012.1
21 22.05 Ю 1 6000 м 5/1 450 м
[Sc Ac trans Ci sp]
+26.2 +23.7 86 +36 +36 очень
душно
1011.6 1011.3
00 23.05 ЮВ 2 6000 м 5/1 420 м
[Sc Ac trans Ci sp]
+26.8 +22.0 75 +35 +36 очень
душно
1012.6 1012.2 +25.5
03 23.05 В 3 7000 м 4/1 420 м
[Cu hum Ac trans Ci sp]
+32.1 +22.2 56 +41 +51 опасность
перегрева
1012.4 1012.0
06 23.05 ЮВ 7 8000 м 8/5 420 м
[Cu med, cong Ac trans Ci sp]
+34.0 +20.0 44 +40 +42 очень
душно
1010.6 1010.2
09 23.05 Ю 4 8000 м 6/3 420 м
[Cu med, cong Ac trans Ci sp]
+33.8 +20.9 47 +41 +42 опасность
перегрева
1009.3 1009.0
12 23.05 ЮЗ 2 6000 м 8/3 420 м
[Sc Ac trans Ci sp]
+31.0 +21.8 58 +39 +39 очень
душно
1010.7 1010.3 +34.7
15 23.05 В 2 6000 м 8/3 420 м
[Sc Ac trans Ci sp]
+28.8 +23.9 75 +40 +40 очень
душно
1012.1 1011.8
18 23.05 Ю 3 6000 м 6/3 420 м
[Sc Ac trans Ci sp]
+27.3 +23.1 78 +37 +37 очень
душно
1011.4 1011.1

 

Местоположение метеостанции Аэропорт Ахмад Яни (Индонезия): широта -6.98 долгота 110.38 высота над уровнем моря 3 м.

В архиве по умолчанию представлена погода в Аэропорту Ахмад Яни за последнюю неделю. Архивные данные за месяц целиком и за предыдущие месяцы, начиная с января 2011 года, Вы можете получить, выбрав интересующий диапазон дат из раскрывающегося списка и нажав кнопку "Ввод!".


*Определитесь, кто Вы:
робот инопланетянин человек

Внимание! Время в таблицах - всемирное. Для получения местного времени необходимо прибавить поправку, которая равна 7 ч.

Смотрите также архив погоды в соседних городах и на ближайших метеорологических станциях:

Погода в Семаранге (Индонезия) (3 км)
Погода в Тегале (Индонезия) (137 км)
Погода в Чилачапе (Индонезия) (173 км)
Погода в Сиребоне (Индонезия) (236 км)
Погода в Сурабая Перак (Индонезия) (259 км)
Погода в Аэропорту Джуанда (Индонезия) (266 км)
Погода в Сангкапуре (Индонезия) (279 км)
Погода в Бандунге (Индонезия) (309 км)
Погода в Сурабая Геданган (Индонезия) (369 км)
Погода в Цитеко (Индонезия) (382 км)

Пояснения к столбцам:

Ветер - указаны скорость ветра в м/с - средняя за 10 мин, порывы в срок и между сроками (в фигурных скобках) и направление, откуда дует ветер: С - северный, СВ - северо-восточный, В - восточный, ЮВ - юго-восточный, Ю - южный, ЮЗ - юго-западный, З - западный, СЗ - северо-западный.
Видимость - горизонтальная дальность видимости в метрах или километрах. При видимости от 1 до 10 км при отсутствии осадков обычно наблюдается дымка, при ухудшении видимости до 1 км и менее - туман. В сухую погоду видимость может ухудшаться дымом, пылью или мглою.
Явления - указаны атмосферные явления, наблюдавшиеся в срок или в последний час перед сроком; фигурными скобками обозначены явления, наблюдавшиеся между сроками (за 1-3 часа до срока); квадратными скобками обозначены град или гололедные отложения с указанием их диаметра в мм.
Облачность - указаны через наклонную черту общая и нижняя облачность в баллах и высота нижней границы облаков в метрах; квадратными скобками обозначены формы облаков: Ci - перистые, Cs - перисто-слоистые, Cc - перисто-кучевые, Ac - высококучевые, As - высокослоистые, Sc - слоисто-кучевые, Ns - слоисто-дождевые, Cu - кучевые, Cb - кучево-дождевые. Подробнее классификацию облаков см. в Атласе облаков (PDF).
T - Температура воздуха - температура, измеренная на высоте 2 м над землей.
Td - Температура точки росы - температура, при понижении до которой содержащийся в воздухе водяной пар достигнет насыщения.
f - Относительная влажность воздуха - влажноcть воздуха, измеренная на высоте 2 м над землей.
Te - Эффективная температура - температура, которую ощущает одетый по сезону человек в тени. Характеристика душности погоды. При расчете учитывается влияние влажности воздуха и скорости ветра на теплоощущения человека.
Tes - Эффективная температура на солнце - температура, которую ощущает человек, с поправкой на солнечный нагрев. Характеристика знойности погоды. Зависит от высоты солнца над горизонтом, облачности и скорости ветра. Ночью, в пасмурную погоду, а также при ветре 12 м/с и более поправка равна нулю.
P - Атмосферное давление - приведенное к уровню моря атмосферное давление.
Po - Атмосферное давление - измеренное на уровне метеостанции атмосферное давление.
Tmin - Минимальная температура - минимум температуры воздуха на высоте 2 м над землей.
Tmax - Максимальная температура - максимум температуры воздуха на высоте 2 м над землей.
R - Количество осадков - Количество выпавших осадков за период времени, мм. При наведении курсора мыши на число - период времени, за который выпало указанное количество осадков.
R24 - Количество осадков - Количество выпавших осадков за 24 часа, мм.
S - Снежный покров - Высота снежного покрова, см. При наведении курсора мыши на число - состояние снежного покрова и степень покрытия местности в баллах.